Main page
METAR-TAF:

METAR-TAF

Airports :

Clayton Municipal Airpark

Clayton, New Mexico, United States

latitude: 36-26-54N, longitude: 103-09-11W, elevation: 4963 ft

Current weather observation

The report was made 1 hour and 2 minutes ago, at 03:55 UTC
Wind 6 mph from the North/Northeast
Temperature 37°F
Humidity 81%
Pressure 30.08 in. Hg
Visibility: 10 miles
Clear sky

METAR: KCAO 160355Z AUTO 03005KT 10SM CLR 03/00 A3008 RMK AO2 SLP182 T00280000

Time: 21:57 (04:57 UTC)


TAF: missing

Weather observations and forecasts of more than 4000 airports (METAR and TAF reports).

The available stations are represented by yellow and red dots on the map.

Hover mouse over dot to see the name of the station.

Then click to see weather observations and forecasts.

To change the map : click on the green buttons with a black cross to zoom in, on the green button with a dash to zoom out, or on the green arrows for adjacent maps.


METAR-TAF: